sat.trackr.live / text

‹ back to catalog

STARLINK-5742

NORAD 55583 · 2023-020Q

PAYLOAD ACTIVE UNKNOWN

§ Identity

Operator
Country
US
Launch date
2023-02-12
Launch site
AFETR
Launch vehicle
Mass (kg)
RCS (m²)

Purposes: comms

External: N2YO · Heavens-Above · Gunter

§ Orbital elements

Epoch: 2026-09-20T12:29:50.569152Z

Period
94.27 min
Inclination
43.0029°
Eccentricity
0.0001129
Mean motion
15.27571291 rev/d
Perigee alt
482.3 km
Apogee alt
483.8 km
Semi-major
6,861.2 km
B*
6.9300e-7
RAAN
344.5609°
Arg perigee
272.1799°
Mean anomaly
87.8923°
Rev number
19,871

§ Raw data

STARLINK-57421 55583U 23020Q   26263.52072418 -.00000243  00000+0  69300-6 0  99942 55583  43.0029 344.5609 0001129 272.1799  87.8923 15.27571291198710

JSON: /api/v1/satellites/55583 · /tle

For live sub-satellite position, see the globe view (requires WebGL).

§ Visibility from observer

Set your observer location to see the next 7 days of passes ≥ 10°. The values pass through the URL so the page stays shareable.

No JS? Fill the form by hand. The geolocation button needs JavaScript.